Погода в Чуприно

Россия / Вологодская область     59°11′18″N   37°08′02″E
темп.,
°C
ветер,
м/с
пор.,
м/с
влажн.,
%
обл.,
%
осадки,
мм/ч
давл.,
гПа
погр.,
м
16 апреля, пт
пт1600:00+3всв4137732 0.0 1028516
03:00+2всв4137890 0.0 1028433
06:00+1всв4137922 0.0 1029431
09:00+5всв511625 0.0 1029612
12:00+9всв58445 0.0 1030961
15:00+11всв573910 0.0 10291172
18:00+10всв484827 0.0 1029968
21:00+5всв3116938 0.0 1030318
17 апреля, сб
сб1700:00+4всв312725 0.0 1031317
03:00+2всв3117855 0.0 1031278
06:00+2всв311797 0.0 1031265
09:00+7в49575 0.0 1032563
12:00+10всв46431 0.0 10311096
15:00+12всв46390 0.0 10301377
18:00+11всв36470 0.0 1029876
21:00+6св27720 0.0 1030129
18 апреля, вс
вс1800:00+4св39780 0.0 1030182
03:00+3всв39810 0.0 1030192
06:00+2всв31081100 0.0 1030218
09:00+7всв485999 0.0 1030460
12:00+10всв5748100 0.0 10291287
15:00+12всв5743100 0.0 10291727
18:00+10всв4853100 0.0 1028882
21:00+7всв41165100 0.0 1029528
19 апреля, пн
пн1900:00+6всв41079100 0.0 1030522
03:00+4всв498595 0.0 1030385
06:00+3всв398570 0.0 1030401
09:00+6в466980 0.0 1031688
12:00+9в465579 0.0 10301247
15:00+11в454573 0.0 10291662
18:00+10вюв365197 0.0 10291200
21:00+6в2666100 0.0 1029177
20 апреля, вт
вт2000:00+3в39695 0.0 1029242
03:00+2в31070100 0.0 1028336
06:00+2в4117187 0.0 1028391
09:00+5в51052100 0.0 1026737
12:00+8в6948100 0.0 10241212
15:00+11вюв6948100 0.0 10211374
18:00+10в61353100 0.0 10181292
21:00+8в71555100 0.0 10161186